Tracking 19969 objects as of 13-Nov-2019
Live streaming from Space Station
objects crossing your sky now
Track the group of recently launched Starlink satellites

ARIANE 2 DEB

Track ARIANE 2 DEB now!


NORAD ID: 33555
Int'l Code: 1989-006AX
Perigee: 796.9 km
Apogee: 35,744.8 km
Inclination: 8.1 °
Period: 641.6 minutes
Semi major axis: 24641 km
RCS: 0.01 m2 (small)
Launch date: January 27, 1989
Source: France (FR)
Launch site: FRENCH GUIANA (FRGUI)

Note: This is SATELLITE DEBRIS
aabbcc
Your satellite tracking list
Your tracking list is empty




NASA's NSSDC Master Catalog

Two Line Element Set (TLE):
1 33555U 89006AX  16144.01914604 +.00014523 +00000-0 +61360+0 0  9995
2 33555 008.0691 235.8616 7091178 181.7176 334.2519 02.24436161082794
Source of the keplerian elements: AFSPC